Location: El Castaño
(10.3135°N, 67.5574°W)
Time: 03:37:19
(UTC+00:00)

Cosmos 2082 Rocket - Pass Details

Date: 13 June 2024
Orbit: 834 x 852 km, 71.0° (Epoch: 19 July)

Event Time Altitude Azimuth Distance (km) Brightness Sun altitude
Rises 23:32:27 0° 192° (SSW) 3,405 5.2 -9.8°
Reaches altitude 10° 23:34:54 10° 190° (S) 2,471 4.5 -10.3°
Maximum altitude 23:40:34 76° 106° (ESE) 877 2.1 -11.6°
Drops below altitude 10° 23:46:14 10° 20° (NNE) 2,470 4.7 -12.8°
Sets 23:48:41 0° 19° (NNE) 3,405 5.5 -13.4°
